STARLINK-2406, 47821

Orbit data source: Space-Track

STARLINK-2406, 47821 is a payload satellite owned by SpaceX/Seattle (US) in LEO that was launched on Thu, 11 Mar 2021 UTC via an FALCON 9 launch vehicle from the Air Force Eastern Test Range (AFETR). Payload-class satellites include a variety of spacecraft equipped with specific instruments for various scientific and technological missions. These include communications satellites like Starlink; space stations such as the ISS; scientific satellites like the Hubble; Earth observation satellites from companies like Planet Labs, Umbra, and HawkEye 360; GPS; miniature CubeSats for education and research; and military/defense satellites.

Loading next visibility...
Identifier
47821, 2021-018AL
Orbit
LEO
Country
Flag of USUS
Related business
Manufacturer
SpaceX/Seattle
Mission
Operational Commercial Communications
Bus & Motor
STARLINK, Unknown motor
Mass
260 kg wet, ~248 kg dry
Launch date (UTC)
2021-03-11 (5 years ago)
Launch vehicle
FALCON 9
Launch site
Air Force Eastern Test Range (AFETR)
Object type
Payload
Rocket body
Debris
Shape & HBR
Box + 1 Pan, 10.1 m
Radar Cross Section
13.562 m², Large (>1 m²)

Expand to show TLE details & history
Last TLE update: 13 hours ago

TLE from 13 hours ago
0 STARLINK-2406
1 47821U 21018AL  26035.22732510  .00008761  00000-0  31535-3 0  9994
2 47821  53.1604  38.1784 0001241 101.2571 258.8569 15.29380749271606
Epoch: 2026-02-04T05:27Z
TLE epoch observation values (Epoch: 2026-02-04T05:27:20.888Z)
Latitude
-0.00002°
Longitude
-178.05558°
Altitude
478.726 km
Speed
7.627 km/s
True Right ascension
02h 32m 42s
True Declination
0° 00' 00"
Sunlit
Object was in daylight at epoch
Visualization orbit readout
Latitude
Unknown
Longitude
Unknown
Altitude
Unknown
Speed
Unknown
Apparent Right ascension
Unknown
Apparent Declination
Unknown
Sunlit
N/A
Visualization observer readout
Local Sidereal Time
20:09:10
Azimuth
Unknown
Elevation
Unknown
Doppler factor
Unknown
Orbital elements
Apogee altitude
478.769 km
Perigee altitude
477.068 km
Semi-major axis
6,856.056 km
Eccentricity
0.00012
Inclination
53.1604°
RAAN
38.1784°
Arg. of periapsis
101.2571°
True anomaly
258.84295°
Mean anomaly
258.8569°
Eccentric anomaly
258.84992°
Mean motion
3.82324 °/min
Orbital period
94.16 mins
BSTAR
0.00031535
Loading maneuver chart data...
Computing Atmospheric mass density...
Loading historical data...
Loading historical data...
Loading historical data...
Loading historical data...
Loading historical data...
Loading historical data...
Loading historical data...

Documentation

Showing up to 5 results
|